Regional Weather Roundup
Issued by NWS

Home | Current Version | Previous Version | Text Only | Print | Product List | Glossary Off
Versions: 1 2 3 4 5 6 7 8 9 10 11 12 13 14 15 16 17 18 19 20 21 22 23 24 25 26 27 28 29 30 31 32 33 34 35 36 37 38 39 40 41 42 43 44 45 46 47 48 49 50

582
ASUS44 KJAN 202303
RWRMS

MISSISSIPPI HOURLY WEATHER ROUNDUP
NATIONAL WEATHER SERVICE JACKSON MS
600 PM CDT WED AUG 20 2014

NOTE: "FAIR: INDICATES FEW OR NO CLOUDS BELOW 12,000 FEET WITH NO
SIGNIFICANT WEATHER AND/OR OBSTRUCTIONS TO VISIBILITY.

MSZ001>002-007>008-010>013-018>021-025>028-034>036-210000-
NORTHWEST MISSISSIPPI

CITY           SKY/WX    TMP DP  RH WIND       PRES   REMARKS
CLARKSDALE     FAIR      91  75  59 CALM      30.00S HX 102
CLEVELAND      FAIR      91  72  53 SW5       29.99F HX  98
GREENWOOD      SUNNY     90  73  57 S6        30.00S HX  98
GREENVILLE     SUNNY     92  69  47 W6        29.99S HX  97
GRENADA        FAIR      90  70  51 SW5       30.01S HX  95
OLIVE BRANCH   MOSUNNY   90  72  55 SW13      29.99S HX  96
OXFORD         FAIR      90  70  51 W6        30.02F HX  95
TUNICA         CLEAR     90  72  55 S12       29.99S HX  96
$$

MSZ003>006-009-014>017-022>024-029>033-037>039-210000-
NORTHEAST MISSISSIPPI

CITY           SKY/WX    TMP DP  RH WIND       PRES   REMARKS
BELMONT        FAIR      89  74  62 SW5       30.01R HX  97
COLUMBUS AFB   SUNNY     93  69  44 W8        30.00S HX  98
CORINTH        FAIR      91  72  52 SW8       29.98S HX  98
GOLDN TRIANGLE MOSUNNY   95  70  43 NW9       30.00F HX 101
STARKVILLE     FAIR      91  68  46 CALM      30.00S HX  95
TUPELO         SUNNY     93  71  48 W8        29.99F HX 100
$$

MSZ040-058-210000-
CENTRAL MISSISSIPPI

CITY           SKY/WX    TMP DP  RH WIND       PRES   REMARKS
JACKSON INTL   MOSUNNY   92  69  47 S6        30.03S HX  97
JACKSON HAWKNS MOSUNNY   92  70  48 S6        30.03S HX  97
MERIDIAN KEY   SUNNY     92  70  48 W6        30.02S HX  97
MERIDIAN NAS   MOSUNNY   92  70  48 W7        30.02S HX  97
RAYMOND        FAIR      91  84  79 S6        30.03S HX 118
VICKSBURG      SUNNY     90  66  45 S7        30.02S HX  92
$$

MSZ059>079-210000-
SOUTH MISSISSIPPI

CITY           SKY/WX    TMP DP  RH WIND       PRES   REMARKS
BROOKHAVEN     FAIR      91  72  52 CALM      30.06R HX  98
COLUMBIA       FAIR      91  73  55 MISG      30.02F HX 100
HATTIESBURG    PTSUNNY   95  67  39 SW8       30.03S HX  99
MCCOMB         MOSUNNY   86  71  60 SW14      30.05R HX  91
NATCHEZ        MOSUNNY   90  75  62 E6        30.05S HX 100
PINE BELT      SUNNY     93  66  40 SW3       30.06S HX  96
$$

MSZ080>082-210000-
COASTAL MISSISSIPPI

CITY           SKY/WX    TMP DP  RH WIND       PRES   REMARKS
BILOXI         MOSUNNY   90  75  62 SW13      30.05S HX 100
PASCAGOULA     MOSUNNY   86  75  69 SW7       30.04S HX  95
GULFPORT       PTSUNNY   89  75  63 S8        30.04S HX  99
$$



USA.gov is the U.S. government's official web portal to all federal, state and local government web resources and services.